EW9042 Weather Reports


time (UTC)temp
F
wind
direction
speed
knots
gust
knots
rain 1hr
in
rain 24hr
in
rain mn
in
humidity
%
barometer
mb
20260505100548 52 9 1.7 8.7 0.05 1.17 1.15 95 1011.3
20260505100101 52 5 4.3 8.7 0.05 1.15 1.14 95 1011.3
20260505095548 52 14 3.5 9.6 0.06 1.15 1.14 95 1011.3
20260505095047 52 11 3.5 9.6 0.06 1.14 1.13 95 1011.3
20260505094548 52 5 2.6 8.7 0.06 1.14 1.13 95 1011.3
20260505094046 52 21 2.6 9.6 0.06 1.14 1.13 95 1011.2
20260505093546 52 34 4.3 9.6 0.06 1.13 1.12 95 1011.2
20260505093057 52 355 0.9 9.6 0.07 1.13 1.12 95 1011.2
20260505092546 52 24 0.9 8.7 0.06 1.12 1.12 95 1011.2
20260505092046 52 5 2.6 8.7 0.07 1.12 1.12 95 1011.2
20260505091545 52 20 0.0 10.4 0.07 1.12 1.12 95 1011.2
20260505091045 52 360 5.2 11.3 0.07 1.12 1.11 95 1011.2
20260505090545 52 9 1.7 8.7 0.08 1.12 1.11 95 1011.2
20260505090044 52 27 0.9 8.7 0.08 1.11 1.10 95 1011.2
20260505085544 52 5 4.3 8.7 0.08 1.10 1.09 95 1011.2
20260505085044 52 11 3.5 10.4 0.09 1.09 1.09 96 1011.2
20260505084544 52 5 4.3 12.2 0.09 1.09 1.09 95 1011.2
20260505084042 52 19 2.6 12.2 0.09 1.09 1.08 95 1011.3
20260505083543 52 15 6.1 12.2 0.09 1.08 1.07 95 1011.3
20260505083040 52 350 3.5 11.3 0.09 1.07 1.06 96 1011.3
20260505082540 52 21 3.5 11.3 0.10 1.06 1.06 96 1011.2
20260505082039 52 17 5.2 10.4 0.11 1.06 1.06 96 1011.2
20260505081541 52 350 2.6 7.0 0.10 1.06 1.05 96 1011.1
20260505081038 52 19 0.9 7.0 0.10 1.05 1.04 96 1011.1
20260505080540 52 15 1.7 7.0 0.10 1.04 1.03 96 1011.2
20260505080047 52 13 3.5 7.0 0.10 1.03 1.02 96 1011.2
20260505075537 52 17 0.9 5.2 0.10 1.02 1.02 96 1011.2
20260505075037 51 11 0.9 8.7 0.09 1.01 1.00 96 1011.2
20260505074537 52 21 4.3 9.6 0.09 1.00 0.99 95 1011.2
20260505074036 51 339 2.6 7.0 0.09 0.99 0.98 95 1011.2
20260505073535 51 24 0.9 4.3 0.08 0.98 0.98 96 1011.1
20260505073039 51 10 0.0 2.6 0.07 0.97 0.96 96 1011.1
20260505072535 51 5 0.0 7.0 0.07 0.96 0.95 96 1011.1
20260505072034 51 16 0.0 6.1 0.08 0.95 0.94 96 1011.1
20260505071537 51 5 0.0 7.0 0.09 0.95 0.94 96 1011.2
20260505071036 51 27 0.9 7.8 0.09 0.94 0.94 96 1011.2
20260505070533 51 11 0.0 7.8 0.09 0.94 0.93 96 1011.2
20260505070032 51 350 0.0 4.3 0.09 0.93 0.92 96 1011.2
20260505065530 51 349 0.0 4.3 0.09 0.92 0.91 96 1011.2
20260505065029 51 347 0.0 0.0 0.10 0.92 0.91 96 1011.2
20260505064528 51 338 0.0 7.8 0.11 0.91 0.91 96 1011.3
20260505064028 51 336 0.9 7.8 0.11 0.91 0.90 96 1011.3
20260505063529 51 355 3.5 11.3 0.12 0.90 0.89 95 1011.3
20260505063027 51 355 3.5 11.3 0.13 0.90 0.89 96 1011.3
20260505062527 50 340 0.9 8.7 0.13 0.89 0.88 96 1011.4
20260505062027 50 314 1.7 7.8 0.12 0.87 0.87 95 1011.3
20260505061532 50 328 1.7 9.6 0.12 0.87 0.86 95 1011.3
20260505061026 50 319 2.6 9.6 0.11 0.85 0.84 95 1011.3
20260505060525 50 349 2.6 9.6 0.12 0.84 0.83 95 1011.3
20260505060027 50 326 0.9 7.0 0.12 0.83 0.83 95 1011.2
20260505055525 50 273 0.0 0.9 0.12 0.83 0.82 96 1011.3
20260505055024 50 339 0.0 7.0 0.13 0.82 0.81 95 1011.3
20260505054523 50 344 0.0 7.0 0.12 0.80 0.80 95 1011.3
20260505054022 50 327 0.0 4.3 0.12 0.79 0.78 95 1011.3
20260505053522 50 5 0.0 5.2 0.12 0.78 0.77 95 1011.3
20260505053034 50 311 0.9 5.2 0.12 0.76 0.76 95 1011.3
20260505052523 49 317 0.0 1.7 0.12 0.76 0.75 95 1011.3
20260505052024 49 317 0.0 2.6 0.13 0.76 0.75 95 1011.3
20260505051535 49 300 0.0 3.5 0.13 0.75 0.74 95 1011.3
20260505051021 49 295 0.0 3.5 0.13 0.74 0.73 95 1011.3
20260505050519 49 328 0.0 0.9 0.13 0.72 0.72 95 1011.4
20260505041520 50 320 0.0 1.7 0.07 0.62 0.61 95 1011.4
20260505041018 50 321 0.0 4.3 0.07 0.61 0.61 95 1011.4
20260505040515 50 332 0.0 4.3 0.06 0.60 0.59 95 1011.5
20260505040013 50 336 0.0 4.3 0.07 0.59 0.57 95 1011.6
20260505035517 50 355 0.0 3.5 0.08 0.59 0.57 95 1011.6
20260505035012 50 337 0.0 4.3 0.10 0.59 0.57 95 1011.6
20260505034512 50 325 0.9 4.3 0.11 0.57 0.56 95 1011.7
20260505034015 50 330 0.0 0.0 0.12 0.57 0.56 95 1011.8
20260505033510 50 330 0.0 3.5 0.12 0.57 0.56 95 1011.8
20260505033009 50 330 0.0 3.5 0.12 0.56 0.56 95 1011.9
20260505032508 50 331 0.0 0.0 0.12 0.56 0.56 95 1012.0
20260505032008 50 331 0.0 0.0 0.11 0.56 0.55 95 1012.0
20260505031509 50 331 0.0 0.0 0.11 0.55 0.54 94 1012.1
20260505031110 50 331 0.0 0.0 0.10 0.54 0.54 94 1012.1
20260505030510 50 331 0.0 0.0 0.11 0.54 0.53 94 1012.1
20260505030006 50 331 0.0 0.0 0.09 0.52 0.51 94 1012.1
20260505025507 50 331 0.0 4.3 0.09 0.50 0.50 94 1012.2
20260505025009 50 331 0.0 4.3 0.08 0.49 0.48 94 1012.2
20260505024505 50 329 0.0 0.0 0.07 0.47 0.46 94 1012.3
20260505024003 50 306 0.0 2.6 0.07 0.46 0.46 94 1012.2
20260505023503 50 321 0.0 0.9 0.07 0.46 0.45 94 1012.3
20260505023010 50 11 0.0 2.6 0.08 0.46 0.45 94 1012.2
20260505022503 50 338 0.0 2.6 0.08 0.45 0.44 94 1012.1
20260505022102 51 333 0.0 0.0 0.08 0.45 0.44 94 1012.1
20260505021502 51 328 0.0 4.3 0.08 0.44 0.43 94 1012.1
20260505021002 51 333 0.0 4.3 0.07 0.43 0.43 94 1012.1
20260505020600 51 344 0.0 2.6 0.07 0.43 0.43 94 1012.1
20260505020100 51 344 0.0 5.2 0.07 0.43 0.42 94 1012.1
20260505015559 51 323 0.0 5.2 0.06 0.42 0.41 94 1012.1
20260505015058 51 325 0.0 1.7 0.06 0.41 0.40 94 1012.3
20260505014606 51 331 0.0 4.3 0.06 0.40 0.39 94 1012.3
20260505014056 52 327 0.9 4.3 0.06 0.39 0.39 94 1012.3
20260505013559 52 334 0.0 2.6 0.06 0.39 0.38 94 1012.3
20260505013058 52 334 0.0 3.5 0.06 0.38 0.37 94 1012.3
20260505012555 52 329 0.0 3.5 0.05 0.37 0.36 94 1012.4
20260505012055 52 331 0.0 0.0 0.06 0.37 0.36 94 1012.5
20260505011555 52 329 0.0 0.0 0.06 0.36 0.35 94 1012.5
20260505011053 52 329 0.0 0.0 0.07 0.36 0.35 94 1012.6
20260505010554 52 329 0.0 0.0 0.09 0.36 0.35 94 1012.5
20260505010112 52 329 0.0 0.0 0.09 0.35 0.35 94 1012.5
20260505005552 52 328 0.0 0.9 0.10 0.35 0.35 94 1012.6
20260505005052 52 327 0.0 0.9 0.12 0.35 0.34 94 1012.6
20260505004551 52 338 0.0 3.5 0.12 0.34 0.33 94 1012.6
20260505004049 52 337 0.0 3.5 0.13 0.34 0.33 94 1012.7
20260505003549 52 339 0.0 0.0 0.14 0.33 0.32 94 1012.7
20260505003054 52 337 0.0 0.0 0.15 0.32 0.31 94 1012.8
20260505002548 52 337 0.0 0.0 0.17 0.32 0.31 94 1012.9
20260505002048 53 337 0.0 0.0 0.17 0.31 0.31 93 1012.8
20260505001548 53 337 0.0 0.0 0.17 0.30 0.28 93 1012.8
20260505001048 53 337 0.0 4.3 0.17 0.28 0.28 93 1012.9
20260505000546 53 337 0.0 4.3 0.17 0.28 0.27 93 1012.9
20260505000048 53 342 0.0 5.2 0.17 0.26 0.25 93 1013.0
20260504235545 53 342 0.0 5.2 0.17 0.24 0.24 93 1013.0
20260504235046 53 346 0.0 1.7 0.16 0.23 0.22 93 1013.0
20260504234544 53 348 0.0 0.0 0.16 0.22 0.21 93 1013.1
20260504234043 53 348 0.0 0.0 0.15 0.20 0.20 93 1013.1
20260504233542 53 348 0.0 0.0 0.14 0.19 0.18 93 1013.1
20260504233043 53 348 0.0 0.0 0.14 0.17 0.17 93 1013.2
20260504232542 53 348 0.0 0.0 0.13 0.16 0.15 93 1013.1
20260504232043 53 348 0.0 0.0 0.12 0.14 0.13 93 1013.2
20260504231546 53 348 0.0 0.0 0.11 0.13 0.12 93 1013.1
20260504231040 53 348 0.0 0.0 0.11 0.12 0.11 92 1013.2
20260504230542 53 348 0.0 0.0 0.09 0.10 0.09 92 1013.3
20260504230044 53 348 0.0 0.0 0.08 0.09 0.08 92 1013.3
20260504225540 53 348 0.0 0.0 0.08 0.08 0.07 92 1013.3
20260504225039 53 348 0.0 0.0 0.07 0.07 0.06 92 1013.3
20260504224539 53 348 0.0 0.0 0.06 0.06 0.06 92 1013.3
20260504224038 53 348 0.0 0.0 0.06 0.06 0.05 92 1013.3
20260504223541 53 348 0.0 0.0 0.04 0.04 0.03 92 1013.3
20260504223038 53 348 0.0 0.0 0.03 0.03 0.02 91 1013.4
20260504222537 53 348 0.0 0.0 0.02 0.02 0.02 91 1013.3
20260504222037 53 348 0.0 0.0 0.02 0.02 0.02 91 1013.3
20260504221548 53 348 0.0 0.0 0.02 0.02 0.01 91 1013.3
20260504221036 53 348 0.0 0.0 0.01 0.01 0.00 91 1013.3
20260504220536 53 348 0.0 0.0 0.01 0.01 0.00 90 1013.3
20260504220035 53 348 0.0 0.0 0.01 0.01 0.00 91 1013.4
20260504215535 53 348 0.0 0.0 0.00 0.00 0.00 91 1013.4
20260504215034 53 348 0.0 0.0 0.00 0.00 0.00 90 1013.4
20260504214535 53 348 0.0 0.0 0.00 0.00 0.00 90 1013.3
20260504214034 53 348 0.0 0.0 0.00 0.00 0.00 90 1013.3
20260504213534 53 348 0.0 0.0 0.00 0.00 0.00 90 1013.3
20260504213046 53 348 0.0 0.0 0.00 0.00 0.00 90 1013.4
20260504212533 53 348 0.0 0.0 0.00 0.00 0.00 90 1013.4
20260504212033 53 348 0.0 0.0 0.00 0.00 0.00 89 1013.4
20260504211537 54 348 0.0 0.0 0.00 0.00 0.00 89 1013.4
20260504211033 54 348 0.0 0.0 0.00 0.00 0.00 89 1013.4
20260504210533 54 348 0.0 0.0 0.00 0.00 0.00 89 1013.4
20260504210033 54 348 0.0 0.0 0.00 0.00 0.00 89 1013.4
20260504205532 54 348 0.0 0.0 0.00 0.00 0.00 89 1013.5
20260504205032 54 348 0.0 0.0 0.00 0.00 0.00 89 1013.5
20260504204532 54 348 0.0 0.0 0.00 0.00 0.00 89 1013.5
20260504204031 54 348 0.0 0.0 0.00 0.00 0.00 89 1013.5
20260504203531 54 325 0.0 3.5 0.00 0.00 0.00 89 1013.5
20260504203044 54 325 0.0 3.5 0.00 0.00 0.00 88 1013.5
20260504202533 54 346 0.0 3.5 0.00 0.00 0.00 88 1013.4
20260504202030 54 350 0.0 3.5 0.00 0.00 0.00 88 1013.4
20260504201531 54 342 0.0 0.0 0.00 0.00 0.00 88 1013.4
20260504201031 55 342 0.0 0.0 0.00 0.00 0.00 88 1013.4
20260504200531 55 342 0.0 0.0 0.00 0.00 0.00 88 1013.4
20260504200031 55 342 0.0 0.0 0.00 0.00 0.00 87 1013.4
20260504195530 55 342 0.0 0.0 0.00 0.00 0.00 87 1013.3
20260504195030 55 342 0.0 0.0 0.00 0.00 0.00 87 1013.3
20260504194538 55 342 0.0 0.0 0.00 0.00 0.00 87 1013.2
20260504194030 55 342 0.0 0.0 0.00 0.00 0.00 86 1013.1
20260504193533 55 346 0.0 0.0 0.00 0.00 0.00 86 1013.0
20260504193030 56 350 0.0 0.0 0.00 0.00 0.00 86 1013.1
20260504192529 56 350 0.0 0.0 0.00 0.00 0.00 86 1013.0
20260504192032 56 347 0.0 0.0 0.00 0.00 0.00 85 1013.0
20260504191536 56 360 0.0 0.0 0.00 0.00 0.00 86 1013.0
20260504191029 56 5 0.0 0.0 0.00 0.00 0.00 86 1012.9
20260504190529 56 5 0.0 3.5 0.00 0.00 0.00 85 1012.9
20260504190029 56 5 0.0 3.5 0.00 0.00 0.00 85 1012.9
20260504185530 56 5 0.0 3.5 0.00 0.00 0.00 85 1012.8
20260504185032 56 5 0.0 3.5 0.00 0.00 0.00 85 1012.7
20260504184530 57 348 0.0 0.0 0.00 0.00 0.00 84 1012.7
20260504184030 57 342 0.0 0.0 0.00 0.00 0.00 84 1012.7
20260504183527 57 30 0.0 0.0 0.00 0.00 0.00 83 1012.8
20260504183028 57 54 0.0 0.0 0.00 0.00 0.00 83 1012.8
20260504182527 57 54 0.0 1.7 0.00 0.00 0.00 82 1012.8
20260504182027 57 38 0.0 7.0 0.00 0.00 0.00 82 1012.7
20260504181527 57 20 0.9 7.0 0.00 0.00 0.00 82 1012.7
20260504181029 57 36 0.0 5.2 0.00 0.00 0.00 82 1012.7
20260504180527 57 17 0.9 5.2 0.00 0.00 0.00 81 1012.7
20260504180027 58 346 0.0 4.3 0.00 0.00 0.00 81 1012.7
20260504175530 58 37 0.0 7.0 0.00 0.00 0.00 81 1012.7
20260504175026 58 29 1.7 7.8 0.00 0.00 0.00 80 1012.7
20260504174526 59 43 0.0 7.8 0.00 0.00 0.00 81 1012.6
20260504174026 59 30 1.7 8.7 0.00 0.00 0.00 82 1012.6
20260504173525 58 55 1.7 8.7 0.00 0.00 0.00 82 1012.6
20260504173027 58 32 2.6 9.6 0.00 0.00 0.00 82 1012.5
20260504172524 58 349 5.2 9.6 0.00 0.00 0.00 83 1012.5
20260504172024 58 355 0.9 11.3 0.00 0.00 0.00 82 1012.5
20260504171531 58 13 6.1 11.3 0.00 0.00 0.00 82 1012.6
20260504171025 59 5 6.1 13.0 0.00 0.00 0.00 81 1012.5
20260504170524 59 61 5.2 13.0 0.00 0.00 0.00 81 1012.6
20260504151018 62 21 5.2 9.6 0.00 0.00 0.00 70 1012.6
20260504150618 62 23 4.3 11.3 0.00 0.00 0.00 68 1012.5
20260504141018 62 45 0.9 7.8 0.00 0.09 0.00 72 1012.9
20260504140512 61 64 4.3 8.7 0.00 0.09 0.00 72 1012.9
20260504130511 62 355 6.1 11.3 0.00 0.09 0.00 77 1013.1
20260504110508 60 50 0.9 8.7 0.00 0.09 0.00 76 1013.6